Back to catalog

STARLINK-37875

AliveCommunicationsVLEO
NORAD 69967·PAYLOAD·🇺🇸 United States

Launched Jul 9, 2026 from Cape Canaveral Space Force Station

Loading…

Next Passes (next 24 hours)

TLE

FreshSource: CelesTrak SupGP

Epoch: Sep 14, 2026, 22:41 UTC

1 69967C 26157AA  26257.94562500 -.00012532  00000+0 -37043-3 0  2572
2 69967  53.1600 359.5630 0001066  79.1976 213.4344 15.34383501    12

Track STARLINK-37875 in real time with AllMySat

Download on the App Store